Year,Month,Day,Hour,Minute,Value (Times are PST for temperature in C)
2018,08,09,00,00,22.70
2018,08,09,00,01,22.70
2018,08,09,00,02,22.60
2018,08,09,00,03,22.60
2018,08,09,00,04,22.60
2018,08,09,00,05,22.60
2018,08,09,00,06,22.50
2018,08,09,00,07,22.50
2018,08,09,00,08,22.50
2018,08,09,00,09,22.40
2018,08,09,00,10,22.40
2018,08,09,00,11,22.40
2018,08,09,00,12,22.40
2018,08,09,00,13,22.30
2018,08,09,00,14,22.30
2018,08,09,00,15,22.30
2018,08,09,00,16,22.30
2018,08,09,00,17,22.20
2018,08,09,00,18,22.20
2018,08,09,00,19,22.20
2018,08,09,00,20,22.20
2018,08,09,00,21,22.20
2018,08,09,00,22,22.10
2018,08,09,00,23,22.10
2018,08,09,00,24,22.10
2018,08,09,00,25,22.10
2018,08,09,00,26,22.10
2018,08,09,00,27,22.10
2018,08,09,00,28,22.00
2018,08,09,00,29,22.00
2018,08,09,00,30,22.00
2018,08,09,00,31,22.00
2018,08,09,00,32,22.00
2018,08,09,00,33,21.90
2018,08,09,00,34,21.90
2018,08,09,00,35,21.90
2018,08,09,00,36,21.90
2018,08,09,00,37,21.90
2018,08,09,00,38,21.90
2018,08,09,00,39,21.80
2018,08,09,00,40,21.80
2018,08,09,00,41,21.80
2018,08,09,00,42,21.80
2018,08,09,00,43,21.80
2018,08,09,00,44,21.90
2018,08,09,00,45,21.90
2018,08,09,00,46,22.00
2018,08,09,00,47,22.00
2018,08,09,00,48,22.00
2018,08,09,00,49,22.00
2018,08,09,00,50,21.90
2018,08,09,00,51,21.90
2018,08,09,00,52,21.90
2018,08,09,00,53,21.90
2018,08,09,00,54,21.90
2018,08,09,00,55,21.80
2018,08,09,00,56,21.80
2018,08,09,00,57,21.80
2018,08,09,00,58,21.80
2018,08,09,00,59,21.80
2018,08,09,01,00,21.80
2018,08,09,01,01,21.80
2018,08,09,01,02,21.80
2018,08,09,01,03,21.80
2018,08,09,01,04,21.90
2018,08,09,01,05,22.00
2018,08,09,01,06,22.00
2018,08,09,01,07,22.00
2018,08,09,01,08,22.00
2018,08,09,01,09,22.00
2018,08,09,01,10,21.90
2018,08,09,01,11,21.90
2018,08,09,01,12,21.80
2018,08,09,01,13,21.70
2018,08,09,01,14,21.70
2018,08,09,01,15,21.60
2018,08,09,01,16,21.60
2018,08,09,01,17,21.60
2018,08,09,01,18,21.60
2018,08,09,01,19,21.50
2018,08,09,01,20,21.50
2018,08,09,01,21,21.40
2018,08,09,01,22,21.50
2018,08,09,01,23,21.50
2018,08,09,01,24,21.60
2018,08,09,01,25,21.60
2018,08,09,01,26,21.50
2018,08,09,01,27,21.50
2018,08,09,01,28,21.40
2018,08,09,01,29,21.40
2018,08,09,01,30,21.40
2018,08,09,01,31,21.30
2018,08,09,01,32,21.30
2018,08,09,01,33,21.30
2018,08,09,01,34,21.20
2018,08,09,01,35,21.20
2018,08,09,01,36,21.10
2018,08,09,01,37,21.10
2018,08,09,01,38,21.00
2018,08,09,01,39,20.90
2018,08,09,01,40,20.90
2018,08,09,01,41,20.80
2018,08,09,01,42,20.80
2018,08,09,01,43,20.70
2018,08,09,01,44,20.70
2018,08,09,01,45,20.60
2018,08,09,01,46,20.60
2018,08,09,01,47,20.50
2018,08,09,01,48,20.50
2018,08,09,01,49,20.40
2018,08,09,01,50,20.40
2018,08,09,01,51,20.30
2018,08,09,01,52,20.30
2018,08,09,01,53,20.20
2018,08,09,01,54,20.20
2018,08,09,01,55,20.20
2018,08,09,01,56,20.10
2018,08,09,01,57,20.10
2018,08,09,01,58,20.00
2018,08,09,01,59,20.00
2018,08,09,02,00,19.90
2018,08,09,02,01,19.90
2018,08,09,02,02,19.90
2018,08,09,02,03,19.80
2018,08,09,02,04,19.80
2018,08,09,02,05,19.80
2018,08,09,02,06,19.70
2018,08,09,02,07,19.70
2018,08,09,02,08,19.70
2018,08,09,02,09,19.70
2018,08,09,02,10,19.70
2018,08,09,02,11,19.60
2018,08,09,02,12,19.60
2018,08,09,02,13,19.60
2018,08,09,02,14,19.60
2018,08,09,02,15,19.60
2018,08,09,02,16,19.60
2018,08,09,02,17,19.50
2018,08,09,02,18,19.50
2018,08,09,02,19,19.50
2018,08,09,02,20,19.40
2018,08,09,02,21,19.40
2018,08,09,02,22,19.40
2018,08,09,02,23,19.40
2018,08,09,02,24,19.40
2018,08,09,02,25,19.40
2018,08,09,02,26,19.40
2018,08,09,02,27,19.40
2018,08,09,02,28,19.40
2018,08,09,02,29,19.30
2018,08,09,02,30,19.30
2018,08,09,02,31,19.30
2018,08,09,02,32,19.30
2018,08,09,02,33,19.30
2018,08,09,02,34,19.30
2018,08,09,02,35,19.30
2018,08,09,02,36,19.30
2018,08,09,02,37,19.20
2018,08,09,02,38,19.20
2018,08,09,02,39,19.20
2018,08,09,02,40,19.20
2018,08,09,02,41,19.20
2018,08,09,02,42,19.20
2018,08,09,02,43,19.20
2018,08,09,02,44,19.20
2018,08,09,02,45,19.20
2018,08,09,02,46,19.10
2018,08,09,02,47,19.10
2018,08,09,02,48,19.10
2018,08,09,02,49,19.10
2018,08,09,02,50,19.10
2018,08,09,02,51,19.00
2018,08,09,02,52,19.00
2018,08,09,02,53,19.00
2018,08,09,02,54,19.00
2018,08,09,02,55,19.00
2018,08,09,02,56,19.00
2018,08,09,02,57,19.00
2018,08,09,02,58,19.00
2018,08,09,02,59,19.00
2018,08,09,03,00,19.00
2018,08,09,03,01,19.00
2018,08,09,03,02,18.90
2018,08,09,03,03,18.90
2018,08,09,03,04,18.90
2018,08,09,03,05,18.90
2018,08,09,03,06,18.90
2018,08,09,03,07,18.90
2018,08,09,03,08,18.90
2018,08,09,03,09,18.90
2018,08,09,03,10,18.90
2018,08,09,03,11,18.90
2018,08,09,03,12,18.80
2018,08,09,03,13,18.80
2018,08,09,03,14,18.80
2018,08,09,03,15,18.80
2018,08,09,03,16,18.80
2018,08,09,03,17,18.80
2018,08,09,03,18,18.80
2018,08,09,03,19,18.80
2018,08,09,03,20,18.80
2018,08,09,03,21,18.80
2018,08,09,03,22,18.80
2018,08,09,03,23,18.80
2018,08,09,03,24,18.80
2018,08,09,03,25,18.80
2018,08,09,03,26,18.80
2018,08,09,03,27,18.70
2018,08,09,03,28,18.70
2018,08,09,03,29,18.70
2018,08,09,03,30,18.70
2018,08,09,03,31,18.70
2018,08,09,03,32,18.70
2018,08,09,03,33,18.60
2018,08,09,03,34,18.60
2018,08,09,03,35,18.60
2018,08,09,03,36,18.60
2018,08,09,03,37,18.50
2018,08,09,03,38,18.50
2018,08,09,03,39,18.50
2018,08,09,03,40,18.50
2018,08,09,03,41,18.40
2018,08,09,03,42,18.40
2018,08,09,03,43,18.40
2018,08,09,03,44,18.40
2018,08,09,03,45,18.40
2018,08,09,03,46,18.40
2018,08,09,03,47,18.40
2018,08,09,03,48,18.30
2018,08,09,03,49,18.30
2018,08,09,03,50,18.30
2018,08,09,03,51,18.30
2018,08,09,03,52,18.30
2018,08,09,03,53,18.30
2018,08,09,03,54,18.30
2018,08,09,03,55,18.30
2018,08,09,03,56,18.30
2018,08,09,03,57,18.30
2018,08,09,03,58,18.30
2018,08,09,03,59,18.30
2018,08,09,04,00,18.30
2018,08,09,04,01,18.20
2018,08,09,04,02,18.20
2018,08,09,04,03,18.20
2018,08,09,04,04,18.20
2018,08,09,04,05,18.20
2018,08,09,04,06,18.20
2018,08,09,04,07,18.20
2018,08,09,04,08,18.20
2018,08,09,04,09,18.20
2018,08,09,04,10,18.20
2018,08,09,04,11,18.10
2018,08,09,04,12,18.10
2018,08,09,04,13,18.10
2018,08,09,04,14,18.20
2018,08,09,04,15,18.20
2018,08,09,04,16,18.20
2018,08,09,04,17,18.30
2018,08,09,04,18,18.30
2018,08,09,04,19,18.30
2018,08,09,04,20,18.30
2018,08,09,04,21,18.40
2018,08,09,04,22,18.40
2018,08,09,04,23,18.50
2018,08,09,04,24,18.50
2018,08,09,04,25,18.50
2018,08,09,04,26,18.60
2018,08,09,04,27,18.60
2018,08,09,04,28,18.60
2018,08,09,04,29,18.60
2018,08,09,04,30,18.60
2018,08,09,04,31,18.50
2018,08,09,04,32,18.50
2018,08,09,04,33,18.50
2018,08,09,04,34,18.40
2018,08,09,04,35,18.40
2018,08,09,04,36,18.40
2018,08,09,04,37,18.40
2018,08,09,04,38,18.30
2018,08,09,04,39,18.30
2018,08,09,04,40,18.30
2018,08,09,04,41,18.30
2018,08,09,04,42,18.20
2018,08,09,04,43,18.20
2018,08,09,04,44,18.20
2018,08,09,04,45,18.10
2018,08,09,04,46,18.10
2018,08,09,04,47,18.10
2018,08,09,04,48,18.10
2018,08,09,04,49,18.00
2018,08,09,04,50,18.00
2018,08,09,04,51,18.00
2018,08,09,04,52,18.00
2018,08,09,04,53,17.90
2018,08,09,04,54,17.90
2018,08,09,04,55,17.90
2018,08,09,04,56,17.80
2018,08,09,04,57,17.80
2018,08,09,04,58,17.80
2018,08,09,04,59,17.70
2018,08,09,05,00,17.70
2018,08,09,05,01,17.70
2018,08,09,05,02,17.60
2018,08,09,05,03,17.60
2018,08,09,05,04,17.50
2018,08,09,05,05,17.50
2018,08,09,05,06,17.40
2018,08,09,05,07,17.40
2018,08,09,05,08,17.40
2018,08,09,05,09,17.30
2018,08,09,05,10,17.30
2018,08,09,05,11,17.30
2018,08,09,05,12,17.30
2018,08,09,05,13,17.30
2018,08,09,05,14,17.20
2018,08,09,05,15,17.20
2018,08,09,05,16,17.20
2018,08,09,05,17,17.10
2018,08,09,05,18,17.10
2018,08,09,05,19,17.10
2018,08,09,05,20,17.10
2018,08,09,05,21,17.00
2018,08,09,05,22,17.00
2018,08,09,05,23,17.00
2018,08,09,05,24,16.90
2018,08,09,05,25,16.90
2018,08,09,05,26,16.90
2018,08,09,05,27,16.90
2018,08,09,05,28,16.80
2018,08,09,05,29,16.80
2018,08,09,05,30,16.80
2018,08,09,05,31,16.80
2018,08,09,05,32,16.70
2018,08,09,05,33,16.70
2018,08,09,05,34,16.70
2018,08,09,05,35,16.60
2018,08,09,05,36,16.60
2018,08,09,05,37,16.60
2018,08,09,05,38,16.50
2018,08,09,05,39,16.50
2018,08,09,05,40,16.50
2018,08,09,05,41,16.40
2018,08,09,05,42,16.40
2018,08,09,05,43,16.40
2018,08,09,05,44,16.40
2018,08,09,05,45,16.30
2018,08,09,05,46,16.30
2018,08,09,05,47,16.30
2018,08,09,05,48,16.30
2018,08,09,05,49,16.20
2018,08,09,05,50,16.20
2018,08,09,05,51,16.20
2018,08,09,05,52,16.20
2018,08,09,05,53,16.20
2018,08,09,05,54,16.10
2018,08,09,05,55,16.10
2018,08,09,05,56,16.10
2018,08,09,05,57,16.10
2018,08,09,05,58,16.00
2018,08,09,05,59,16.00
2018,08,09,06,00,15.90
2018,08,09,06,01,15.90
2018,08,09,06,02,15.80
2018,08,09,06,03,15.80
2018,08,09,06,04,15.80
2018,08,09,06,05,15.80
2018,08,09,06,06,15.80
2018,08,09,06,07,15.70
2018,08,09,06,08,15.70
2018,08,09,06,09,15.70
2018,08,09,06,10,15.70
2018,08,09,06,11,15.70
2018,08,09,06,12,15.60
2018,08,09,06,13,15.60
2018,08,09,06,14,15.60
2018,08,09,06,15,15.60
2018,08,09,06,16,15.50
2018,08,09,06,17,15.50
2018,08,09,06,18,15.50
2018,08,09,06,19,15.40
2018,08,09,06,20,15.40
2018,08,09,06,21,15.40
2018,08,09,06,22,15.40
2018,08,09,06,23,15.40
2018,08,09,06,24,15.40
2018,08,09,06,25,15.40
2018,08,09,06,26,15.30
2018,08,09,06,27,15.30
2018,08,09,06,28,15.30
2018,08,09,06,29,15.30
2018,08,09,06,30,15.30
2018,08,09,06,31,15.30
2018,08,09,06,32,15.30
2018,08,09,06,33,15.30
2018,08,09,06,34,15.30
2018,08,09,06,35,15.30
2018,08,09,06,36,15.30
2018,08,09,06,37,15.30
2018,08,09,06,38,15.30
2018,08,09,06,39,15.30
2018,08,09,06,40,15.30
2018,08,09,06,41,15.30
2018,08,09,06,42,15.30
2018,08,09,06,43,15.30
2018,08,09,06,44,15.30
2018,08,09,06,45,15.30
2018,08,09,06,46,15.30
2018,08,09,06,47,15.30
2018,08,09,06,48,15.30
2018,08,09,06,49,15.30
2018,08,09,06,50,15.30
2018,08,09,06,51,15.30
2018,08,09,06,52,15.30
2018,08,09,06,53,15.30
2018,08,09,06,54,15.30
2018,08,09,06,55,15.30
2018,08,09,06,56,15.30
2018,08,09,06,57,15.30
2018,08,09,06,58,15.30
2018,08,09,06,59,15.30
2018,08,09,07,00,15.30
2018,08,09,07,01,15.30
2018,08,09,07,02,15.30
2018,08,09,07,03,15.30
2018,08,09,07,04,15.30
2018,08,09,07,05,15.30
2018,08,09,07,06,15.30
2018,08,09,07,07,15.30
2018,08,09,07,08,15.30
2018,08,09,07,09,15.30
2018,08,09,07,10,15.30
2018,08,09,07,11,15.30
2018,08,09,07,12,15.30
2018,08,09,07,13,15.40
2018,08,09,07,14,15.40
2018,08,09,07,15,15.40
2018,08,09,07,16,15.40
2018,08,09,07,17,15.40
2018,08,09,07,18,15.50
2018,08,09,07,19,15.50
2018,08,09,07,20,15.60
2018,08,09,07,21,15.60
2018,08,09,07,22,15.60
2018,08,09,07,23,15.60
2018,08,09,07,24,15.70
2018,08,09,07,25,15.70
2018,08,09,07,26,15.70
2018,08,09,07,27,15.70
2018,08,09,07,28,15.80
2018,08,09,07,29,15.80
2018,08,09,07,30,15.80
2018,08,09,07,31,15.80
2018,08,09,07,32,15.90
2018,08,09,07,33,15.90
2018,08,09,07,34,15.90
2018,08,09,07,35,15.90
2018,08,09,07,36,15.90
2018,08,09,07,37,15.90
2018,08,09,07,38,16.00
2018,08,09,07,39,16.00
2018,08,09,07,40,16.00
2018,08,09,07,41,16.10
2018,08,09,07,42,16.10
2018,08,09,07,43,16.10
2018,08,09,07,44,16.20
2018,08,09,07,45,16.20
2018,08,09,07,46,16.20
2018,08,09,07,47,16.20
2018,08,09,07,48,16.30
2018,08,09,07,49,16.30
2018,08,09,07,50,16.30
2018,08,09,07,51,16.30
2018,08,09,07,52,16.30
2018,08,09,07,53,16.40
2018,08,09,07,54,16.40
2018,08,09,07,55,16.40
2018,08,09,07,56,16.50
2018,08,09,07,57,16.60
2018,08,09,07,58,16.60
2018,08,09,07,59,16.70
2018,08,09,08,00,16.80
2018,08,09,08,01,16.90
2018,08,09,08,02,17.00
2018,08,09,08,03,17.00
2018,08,09,08,04,17.10
2018,08,09,08,05,17.20
2018,08,09,08,06,17.30
2018,08,09,08,07,17.30
2018,08,09,08,08,17.40
2018,08,09,08,09,17.50
2018,08,09,08,10,17.50
2018,08,09,08,11,17.60
2018,08,09,08,12,17.70
2018,08,09,08,13,17.70
2018,08,09,08,14,17.80
2018,08,09,08,15,17.80
2018,08,09,08,16,17.90
2018,08,09,08,17,17.90
2018,08,09,08,18,18.00
2018,08,09,08,19,18.10
2018,08,09,08,20,18.10
2018,08,09,08,21,18.20
2018,08,09,08,22,18.20
2018,08,09,08,23,18.20
2018,08,09,08,24,18.30
2018,08,09,08,25,18.30
2018,08,09,08,26,18.40
2018,08,09,08,27,18.40
2018,08,09,08,28,18.40
2018,08,09,08,29,18.50
2018,08,09,08,30,18.50
2018,08,09,08,31,18.60
2018,08,09,08,32,18.60
2018,08,09,08,33,18.70
2018,08,09,08,34,18.80
2018,08,09,08,35,18.80
2018,08,09,08,36,18.90
2018,08,09,08,37,18.90
2018,08,09,08,38,18.90
2018,08,09,08,39,19.00
2018,08,09,08,40,19.10
2018,08,09,08,41,19.10
2018,08,09,08,42,19.20
2018,08,09,08,43,19.20
2018,08,09,08,44,19.20
2018,08,09,08,45,19.30
2018,08,09,08,46,19.30
2018,08,09,08,47,19.40
2018,08,09,08,48,19.40
2018,08,09,08,49,19.50
2018,08,09,08,50,19.60
2018,08,09,08,51,19.70
2018,08,09,08,52,19.80
2018,08,09,08,53,19.90
2018,08,09,08,54,20.00
2018,08,09,08,55,20.10
2018,08,09,08,56,20.30
2018,08,09,08,57,20.40
2018,08,09,08,58,20.50
2018,08,09,08,59,20.60
2018,08,09,09,00,20.70
2018,08,09,09,01,20.80
2018,08,09,09,02,20.90
2018,08,09,09,03,21.00
2018,08,09,09,04,21.10
2018,08,09,09,05,21.10
2018,08,09,09,06,21.10
2018,08,09,09,07,21.20
2018,08,09,09,08,21.20
2018,08,09,09,09,21.20
2018,08,09,09,10,21.20
2018,08,09,09,11,21.20
2018,08,09,09,12,21.20
2018,08,09,09,13,21.20
2018,08,09,09,14,21.20
2018,08,09,09,15,21.20
2018,08,09,09,16,21.20
2018,08,09,09,17,21.20
2018,08,09,09,18,21.20
2018,08,09,09,19,21.20
2018,08,09,09,20,21.10
2018,08,09,09,21,21.10
2018,08,09,09,22,21.10
2018,08,09,09,23,21.10
2018,08,09,09,24,21.00
2018,08,09,09,25,21.00
2018,08,09,09,26,21.00
2018,08,09,09,27,20.90
2018,08,09,09,28,20.90
2018,08,09,09,29,20.90
2018,08,09,09,30,20.90
2018,08,09,09,31,20.90
2018,08,09,09,32,20.90
2018,08,09,09,33,20.90
2018,08,09,09,34,20.90
2018,08,09,09,35,20.90
2018,08,09,09,36,20.90
2018,08,09,09,37,20.90
2018,08,09,09,38,20.90
2018,08,09,09,39,20.90
2018,08,09,09,40,20.90
2018,08,09,09,41,21.00
2018,08,09,09,42,21.00
2018,08,09,09,43,21.10
2018,08,09,09,44,21.10
2018,08,09,09,45,21.20
2018,08,09,09,46,21.20
2018,08,09,09,47,21.20
2018,08,09,09,48,21.20
2018,08,09,09,49,21.20
2018,08,09,09,50,21.20
2018,08,09,09,51,21.20
2018,08,09,09,52,21.20
2018,08,09,09,53,21.20
2018,08,09,09,54,21.20
2018,08,09,09,55,21.20
2018,08,09,09,56,21.20
2018,08,09,09,57,21.10
2018,08,09,09,58,21.00
2018,08,09,09,59,20.90
2018,08,09,10,00,20.80
2018,08,09,10,01,20.80
2018,08,09,10,02,20.80
2018,08,09,10,03,20.80
2018,08,09,10,04,20.80
2018,08,09,10,05,20.80
2018,08,09,10,06,20.70
2018,08,09,10,07,20.70
2018,08,09,10,08,20.60
2018,08,09,10,09,20.60
2018,08,09,10,10,20.60
2018,08,09,10,11,20.50
2018,08,09,10,12,20.50
2018,08,09,10,13,20.50
2018,08,09,10,14,20.50
2018,08,09,10,15,20.50
2018,08,09,10,16,20.60
2018,08,09,10,17,20.60
2018,08,09,10,18,20.70
2018,08,09,10,19,20.70
2018,08,09,10,20,20.70
2018,08,09,10,21,20.80
2018,08,09,10,22,20.90
2018,08,09,10,23,20.90
2018,08,09,10,24,21.00
2018,08,09,10,25,21.10
2018,08,09,10,26,21.30
2018,08,09,10,27,21.40
2018,08,09,10,28,21.50
2018,08,09,10,29,21.60
2018,08,09,10,30,21.80
2018,08,09,10,31,21.90
2018,08,09,10,32,22.00
2018,08,09,10,33,22.20
2018,08,09,10,34,22.30
2018,08,09,10,35,22.50
2018,08,09,10,36,22.60
2018,08,09,10,37,22.70
2018,08,09,10,38,22.70
2018,08,09,10,39,22.80
2018,08,09,10,40,22.80
2018,08,09,10,41,22.90
2018,08,09,10,42,23.00
2018,08,09,10,43,23.10
2018,08,09,10,44,23.30
2018,08,09,10,45,23.40
2018,08,09,10,46,23.50
2018,08,09,10,47,23.60
2018,08,09,10,48,23.70
2018,08,09,10,49,23.80
2018,08,09,10,50,23.90
2018,08,09,10,51,24.00
2018,08,09,10,52,24.00
2018,08,09,10,53,24.10
2018,08,09,10,54,24.20
2018,08,09,10,55,24.20
2018,08,09,10,56,24.30
2018,08,09,10,57,24.30
2018,08,09,10,58,24.40
2018,08,09,10,59,24.50
2018,08,09,11,00,24.60
2018,08,09,11,01,24.60
2018,08,09,11,02,24.70
2018,08,09,11,03,24.80
2018,08,09,11,04,24.80
2018,08,09,11,05,24.80
2018,08,09,11,06,24.80
2018,08,09,11,07,24.80
2018,08,09,11,08,24.70
2018,08,09,11,09,24.70
2018,08,09,11,10,24.70
2018,08,09,11,11,24.70
2018,08,09,11,12,24.70
2018,08,09,11,13,24.70
2018,08,09,11,14,24.70
2018,08,09,11,15,24.70
2018,08,09,11,16,24.70
2018,08,09,11,17,24.70
2018,08,09,11,18,24.70
2018,08,09,11,19,24.80
2018,08,09,11,20,24.90
2018,08,09,11,21,24.90
2018,08,09,11,22,24.90
2018,08,09,11,23,25.00
2018,08,09,11,24,25.00
2018,08,09,11,25,25.10
2018,08,09,11,26,25.10
2018,08,09,11,27,25.10
2018,08,09,11,28,25.10
2018,08,09,11,29,25.20
2018,08,09,11,30,25.20
2018,08,09,11,31,25.30
2018,08,09,11,32,25.40
2018,08,09,11,33,25.50
2018,08,09,11,34,25.50
2018,08,09,11,35,25.60
2018,08,09,11,36,25.70
2018,08,09,11,37,25.80
2018,08,09,11,38,25.80
2018,08,09,11,39,25.90
2018,08,09,11,40,25.80
2018,08,09,11,41,25.80
2018,08,09,11,42,25.90
2018,08,09,11,43,25.90
2018,08,09,11,44,25.90
2018,08,09,11,45,26.00
2018,08,09,11,46,26.00
2018,08,09,11,47,26.10
2018,08,09,11,48,26.10
2018,08,09,11,49,26.20
2018,08,09,11,50,26.20
2018,08,09,11,51,26.30
2018,08,09,11,52,26.30
2018,08,09,11,53,26.30
2018,08,09,11,54,26.30
2018,08,09,11,55,26.30
2018,08,09,11,56,26.40
2018,08,09,11,57,26.30
2018,08,09,11,58,26.30
2018,08,09,11,59,26.30
2018,08,09,12,00,26.30
2018,08,09,12,01,26.20
2018,08,09,12,02,26.20
2018,08,09,12,03,26.00
2018,08,09,12,04,25.90
2018,08,09,12,05,25.80
2018,08,09,12,06,25.60
2018,08,09,12,07,25.50
2018,08,09,12,08,25.40
2018,08,09,12,09,25.40
2018,08,09,12,10,25.40
2018,08,09,12,11,25.50
2018,08,09,12,12,25.50
2018,08,09,12,13,25.50
2018,08,09,12,14,25.40
2018,08,09,12,15,25.40
2018,08,09,12,16,25.30
2018,08,09,12,17,25.20
2018,08,09,12,18,25.10
2018,08,09,12,19,24.90
2018,08,09,12,20,24.70
2018,08,09,12,21,24.60
2018,08,09,12,22,24.60
2018,08,09,12,23,24.50
2018,08,09,12,24,24.50
2018,08,09,12,25,24.50
2018,08,09,12,26,24.50
2018,08,09,12,27,24.60
2018,08,09,12,28,24.60
2018,08,09,12,29,24.70
2018,08,09,12,30,24.70
2018,08,09,12,31,24.80
2018,08,09,12,32,24.80
2018,08,09,12,33,24.90
2018,08,09,12,34,25.00
2018,08,09,12,35,25.10
2018,08,09,12,36,25.10
2018,08,09,12,37,25.10
2018,08,09,12,38,25.10
2018,08,09,12,39,25.20
2018,08,09,12,40,25.20
2018,08,09,12,41,25.30
2018,08,09,12,42,25.40
2018,08,09,12,43,25.40
2018,08,09,12,44,25.50
2018,08,09,12,45,25.60
2018,08,09,12,46,25.70
2018,08,09,12,47,25.80
2018,08,09,12,48,25.80
2018,08,09,12,49,25.90
2018,08,09,12,50,25.90
2018,08,09,12,51,25.90
2018,08,09,12,52,25.90
2018,08,09,12,53,25.90
2018,08,09,12,54,25.80
2018,08,09,12,55,25.80
2018,08,09,12,56,25.80
2018,08,09,12,57,25.90
2018,08,09,12,58,25.90
2018,08,09,12,59,25.90
2018,08,09,13,00,25.80
2018,08,09,13,01,25.80
2018,08,09,13,02,25.80
2018,08,09,13,03,25.70
2018,08,09,13,04,25.70
2018,08,09,13,05,25.70
2018,08,09,13,06,25.60
2018,08,09,13,07,25.50
2018,08,09,13,08,25.40
2018,08,09,13,09,25.30
2018,08,09,13,10,25.20
2018,08,09,13,11,25.10
2018,08,09,13,12,25.10
2018,08,09,13,13,25.10
2018,08,09,13,14,25.10
2018,08,09,13,15,25.20
2018,08,09,13,16,25.10
2018,08,09,13,17,25.10
2018,08,09,13,18,25.10
2018,08,09,13,19,25.10
2018,08,09,13,20,25.10
2018,08,09,13,21,25.20
2018,08,09,13,22,25.20
2018,08,09,13,23,25.30
2018,08,09,13,24,25.40
2018,08,09,13,25,25.50
2018,08,09,13,26,25.50
2018,08,09,13,27,25.70
2018,08,09,13,28,25.70
2018,08,09,13,29,25.70
2018,08,09,13,30,25.70
2018,08,09,13,31,25.70
2018,08,09,13,32,25.70
2018,08,09,13,33,25.70
2018,08,09,13,34,25.60
2018,08,09,13,35,25.50
2018,08,09,13,36,25.50
2018,08,09,13,37,25.40
2018,08,09,13,38,25.40
2018,08,09,13,39,25.30
2018,08,09,13,40,25.30
2018,08,09,13,41,25.30
2018,08,09,13,42,25.30
2018,08,09,13,43,25.30
2018,08,09,13,44,25.40
2018,08,09,13,45,25.40
2018,08,09,13,46,25.50
2018,08,09,13,47,25.50
2018,08,09,13,48,25.60
2018,08,09,13,49,25.60
2018,08,09,13,50,25.70
2018,08,09,13,51,25.70
2018,08,09,13,52,25.70
2018,08,09,13,53,25.70
2018,08,09,13,54,25.70
2018,08,09,13,55,25.80
2018,08,09,13,56,25.80
2018,08,09,13,57,25.80
2018,08,09,13,58,25.80
2018,08,09,13,59,25.80
2018,08,09,14,00,25.80
2018,08,09,14,01,25.80
2018,08,09,14,02,25.80
2018,08,09,14,03,25.70
2018,08,09,14,04,25.70
2018,08,09,14,05,25.70
2018,08,09,14,06,25.70
2018,08,09,14,07,25.70
2018,08,09,14,08,25.70
2018,08,09,14,09,25.60
2018,08,09,14,10,25.60
2018,08,09,14,11,25.60
2018,08,09,14,12,25.60
2018,08,09,14,13,25.70
2018,08,09,14,14,25.80
2018,08,09,14,15,25.90
2018,08,09,14,16,26.00
2018,08,09,14,17,26.20
2018,08,09,14,18,26.30
2018,08,09,14,19,26.40
2018,08,09,14,20,26.50
2018,08,09,14,21,26.70
2018,08,09,14,22,26.70
2018,08,09,14,23,26.90
2018,08,09,14,24,27.00
2018,08,09,14,25,27.10
2018,08,09,14,26,27.20
2018,08,09,14,27,27.20
2018,08,09,14,28,27.30
2018,08,09,14,29,27.30
2018,08,09,14,30,27.30
2018,08,09,14,31,27.30
2018,08,09,14,32,27.40
2018,08,09,14,33,27.40
2018,08,09,14,34,27.30
2018,08,09,14,35,27.30
2018,08,09,14,36,27.30
2018,08,09,14,37,27.30
2018,08,09,14,38,27.40
2018,08,09,14,39,27.40
2018,08,09,14,40,27.40
2018,08,09,14,41,27.30
2018,08,09,14,42,27.30
2018,08,09,14,43,27.20
2018,08,09,14,44,27.20
2018,08,09,14,45,27.20
2018,08,09,14,46,27.20
2018,08,09,14,47,27.20
2018,08,09,14,48,27.30
2018,08,09,14,49,27.40
2018,08,09,14,50,27.50
2018,08,09,14,51,27.60
2018,08,09,14,52,27.70
2018,08,09,14,53,27.80
2018,08,09,14,54,27.90
2018,08,09,14,55,28.00
2018,08,09,14,56,28.10
2018,08,09,14,57,28.10
2018,08,09,14,58,28.20
2018,08,09,14,59,28.20
2018,08,09,15,00,28.30
2018,08,09,15,01,28.40
2018,08,09,15,02,28.50
2018,08,09,15,03,28.60
2018,08,09,15,04,28.70
2018,08,09,15,05,28.80
2018,08,09,15,06,28.90
2018,08,09,15,07,29.00
2018,08,09,15,08,29.10
2018,08,09,15,09,29.10
2018,08,09,15,10,29.10
2018,08,09,15,11,29.10
2018,08,09,15,12,29.10
2018,08,09,15,13,29.10
2018,08,09,15,14,29.10
2018,08,09,15,15,29.10
2018,08,09,15,16,29.20
2018,08,09,15,17,29.20
2018,08,09,15,18,29.30
2018,08,09,15,19,29.30
2018,08,09,15,20,29.40
2018,08,09,15,21,29.50
2018,08,09,15,22,29.60
2018,08,09,15,23,29.70
2018,08,09,15,24,29.70
2018,08,09,15,25,29.70
2018,08,09,15,26,29.70
2018,08,09,15,27,29.70
2018,08,09,15,28,29.70
2018,08,09,15,29,29.60
2018,08,09,15,30,29.60
2018,08,09,15,31,29.70
2018,08,09,15,32,29.80
2018,08,09,15,33,29.80
2018,08,09,15,34,29.90
2018,08,09,15,35,29.90
2018,08,09,15,36,30.00
2018,08,09,15,37,30.10
2018,08,09,15,38,30.10
2018,08,09,15,39,30.10
2018,08,09,15,40,30.20
2018,08,09,15,41,30.30
2018,08,09,15,42,30.40
2018,08,09,15,43,30.40
2018,08,09,15,44,30.40
2018,08,09,15,45,30.50
2018,08,09,15,46,30.50
2018,08,09,15,47,30.60
2018,08,09,15,48,30.70
2018,08,09,15,49,30.70
2018,08,09,15,50,30.70
2018,08,09,15,51,30.80
2018,08,09,15,52,30.80
2018,08,09,15,53,30.80
2018,08,09,15,54,30.80
2018,08,09,15,55,30.90
2018,08,09,15,56,30.90
2018,08,09,15,57,30.90
2018,08,09,15,58,30.90
2018,08,09,15,59,30.90
2018,08,09,16,00,30.90
2018,08,09,16,01,30.90
2018,08,09,16,02,30.90
2018,08,09,16,03,30.90
2018,08,09,16,04,30.90
2018,08,09,16,05,31.00
2018,08,09,16,06,31.00
2018,08,09,16,07,31.10
2018,08,09,16,08,31.10
2018,08,09,16,09,31.10
2018,08,09,16,10,31.10
2018,08,09,16,11,31.10
2018,08,09,16,12,31.10
2018,08,09,16,13,31.10
2018,08,09,16,14,31.10
2018,08,09,16,15,31.10
2018,08,09,16,16,31.10
2018,08,09,16,17,31.10
2018,08,09,16,18,31.10
2018,08,09,16,19,31.10
2018,08,09,16,20,31.20
2018,08,09,16,21,31.20
2018,08,09,16,22,31.20
2018,08,09,16,23,31.20
2018,08,09,16,24,31.20
2018,08,09,16,25,31.20
2018,08,09,16,26,31.20
2018,08,09,16,27,31.20
2018,08,09,16,28,31.20
2018,08,09,16,29,31.20
2018,08,09,16,30,31.30
2018,08,09,16,31,31.30
2018,08,09,16,32,31.30
2018,08,09,16,33,31.30
2018,08,09,16,34,31.40
2018,08,09,16,35,31.40
2018,08,09,16,36,31.50
2018,08,09,16,37,31.50
2018,08,09,16,38,31.50
2018,08,09,16,39,31.50
2018,08,09,16,40,31.50
2018,08,09,16,41,31.50
2018,08,09,16,42,31.50
2018,08,09,16,43,31.50
2018,08,09,16,44,31.40
2018,08,09,16,45,31.50
2018,08,09,16,46,31.50
2018,08,09,16,47,31.50
2018,08,09,16,48,31.50
2018,08,09,16,49,31.50
2018,08,09,16,50,31.50
2018,08,09,16,51,31.50
2018,08,09,16,52,31.60
2018,08,09,16,53,31.60
2018,08,09,16,54,31.60
2018,08,09,16,55,31.70
2018,08,09,16,56,31.70
2018,08,09,16,57,31.80
2018,08,09,16,58,31.90
2018,08,09,16,59,32.00
2018,08,09,17,00,32.10
2018,08,09,17,01,32.10
2018,08,09,17,02,32.20
2018,08,09,17,03,32.20
2018,08,09,17,04,32.20
2018,08,09,17,05,32.30
2018,08,09,17,06,32.30
2018,08,09,17,07,32.30
2018,08,09,17,08,32.30
2018,08,09,17,09,32.30
2018,08,09,17,10,32.40
2018,08,09,17,11,32.40
2018,08,09,17,12,32.40
2018,08,09,17,13,32.40
2018,08,09,17,14,32.40
2018,08,09,17,15,32.40
2018,08,09,17,16,32.40
2018,08,09,17,17,32.40
2018,08,09,17,18,32.40
2018,08,09,17,19,32.30